Location: Baix
(44.7118°N, 4.7648°E)
Time: 17:44:45
(UTC+00:00)

Cosmos 2322 Rocket - Pass Details

Date: 05 December 2022
Orbit: 834 x 849 km, 71.0° (Epoch: 29 January)

Event Time Altitude Azimuth Distance (km) Brightness Sun altitude
Rises 06:08:03 0° 192° (SSW) 3,386 5.5 -9.4°
Reaches altitude 10° 06:10:31 10° 189° (S) 2,453 4.8 -9.0°
Maximum altitude 06:16:03 60° 110° (ESE) 956 2.9 -8.1°
Drops below altitude 10° 06:21:35 10° 32° (NNE) 2,460 4.7 -7.2°
Sets 06:24:03 0° 29° (NNE) 3,396 5.4 -6.8°
